This site uses a module created by best online poker sites.

BSB police report ending January 5, 2018

Print
"01/04/2018","00:16","218CR0000236","BUSINESS CHECK","BUSINESS CHECK","3700 HARRISON AVE","",""
"01/04/2018","00:26","218CR0000237","ANIMAL COMPLAINT","ANIMAL COMPLAINT","4300 SEVEN SPRINGS RD","",""
"01/04/2018","02:32","218CR0000238","BUSINESS CHECK","BUSINESS CHECK","ELIZABETH WARREN AND HARRISON","",""
"01/04/2018","02:43","218CR0000239","BUSINESS CHECK","BUSINESS CHECK","2001 DEWEY BLVD","",""
"01/04/2018","03:16","218CR0000240","SUSPICIOUS ACTIVITY","SUSPICIOUS ACTIVITY","226 W SILVER","",""
"01/04/2018","03:50","218CR0000241","DISTURBANCE-NOISE","DISTURBANCE-NOISE","957 W BROADWAY","",""
"01/04/2018","05:05","218CR0000242","DETENTION BUSINESS","DETENTION BUSINESS","************","",""
"01/04/2018","05:22","218CR0000243","DRUGS","DRUGS","************","",""
"01/04/2018","07:42","218CR0000244","CIVIL PAPER SERVICE","CIVIL PAPER SERVICE","3320 PAXSON","",""
"01/04/2018","07:46","218CR0000245","CIVIL PAPER SERVICE","CIVIL PAPER SERVICE","1928 S JACKSON","",""
"01/04/2018","08:19","218CR0000246","PARKING COMPLAINT","PARKING COMPLAINT","2800 YALE","",""
"01/04/2018","08:31","218CR0000247","CIVIL PAPER SERVICE","CIVIL PAPER SERVICE","700 W PARK","",""
"01/04/2018","08:43","218CR0000248","DETENTION BUSINESS","DETENTION BUSINESS","************","",""
"01/04/2018","08:46","218CR0000249","DISTURBANCE","DISTURBANCE","603 SILVER BOW HOMES","",""
"01/04/2018","08:58","218CR0000250","ALARM - BURGLARY","ALARM - BURGLARY","************","",""
"01/04/2018","09:34","218CR0000251","CIVIL PAPER SERVICE","CIVIL PAPER SERVICE","1201 CENTENNIAL AVE","",""
"01/04/2018","09:55","218CR0000252","CIVIL PAPER SERVICE","CIVIL PAPER SERVICE","508 SILVER BOW HOMES","",""
"01/04/2018","10:16","218CR0000253","CIVIL PAPER SERVICE","CIVIL PAPER SERVICE","412 W MERCURY","",""
"01/04/2018","10:30","218CR0000254","LOST OR STOLEN PROPERTY","LOST OR STOLEN PROPERTY","THRIFTWAY FRONT AND UTAH","",""
"01/04/2018","11:16","218CR0000255","MISSING PERSON","MISSING PERSON","************","",""
"01/04/2018","11:19","218CR0000256","CIVIL PAPER SERVICE","CIVIL PAPER SERVICE","110 E ALUMINUM","",""
"01/04/2018","11:29","218CR0000257","ATL","ATL","1880 HARRISON AVE","",""
"01/04/2018","11:40","218CR0000258","MEDICAL - ASSIST","MEDICAL - ASSIST","************","",""
"01/04/2018","12:18","218CR0000259","THEFT","THEFT","744 EMPIRE","",""
"01/04/2018","12:30","218CR0000260","CIVIL PAPER SERVICE","CIVIL PAPER SERVICE","105 RAMPART DR #110","",""
"01/04/2018","12:32","218CR0000261","DETENTION BUSINESS","DETENTION BUSINESS","************","",""
"01/04/2018","12:41","218CR0000262","ACCIDENT","POSSESSION OF DANGEROUS DRUGS","SECOND ST AND SHEILDS AVE","ARREST(s) MADE",""
"01/04/2018","12:45","218CR0000263","RESTRAINING ORDER VIOLATION","VIOLATION OF PROTECTION ORDER","1736 FARRAGUT","",""
"01/04/2018","12:53","218CR0000264","ASSIST OTHER AGENCY","ASSIST OTHER AGENCY","225 N ALASKA ST","",""
"01/04/2018","13:14","218CR0000265","ATL","ATL","ANACONDA","",""
"01/04/2018","13:29","218CR0000266","THEFT","THEFT FROM BUILDINGS","2100 CORNELL","",""
"01/04/2018","13:40","218CR0000267","MEDICAL - EMERGENCY","MEDICAL - EMERGENCY","I15 MM 144 NB","",""
"01/04/2018","13:41","218CR0000268","SUSPICIOUS ACTIVITY","SUSPICIOUS ACTIVITY","CENTENNIAL AND OLD ROCKER RD","",""
"01/04/2018","13:45","218CR0000269","ALARM - FIRE","ALARM - FIRE","2025 S ARIZONA","",""
"01/04/2018","14:14","218CR0000270","CIVIL STANDBY","CIVIL STANDBY","2520 APEX LANE","",""
"01/04/2018","14:15","218CR0000271","ASSIST OTHER AGENCY","ASSIST OTHER AGENCY","I15 MM 144 NBND","",""
"01/04/2018","14:15","218CR0000272","TRAFFIC","TRAFFIC","3231 BUSCH ST","",""
"01/04/2018","14:34","218CR0000273","ALL OTHER","ALL OTHER","1720 LONGFELLOW ST","",""
"01/04/2018","14:46","218CR0000274","DETENTION BUSINESS","DETENTION BUSINESS","************","",""
"01/04/2018","15:03","218CR0000275","ALL OTHER","ALL OTHER","","",""
"01/04/2018","15:15","218CR0000276","ALARM - MEDICAL","ALARM - MEDICAL","************","",""
"01/04/2018","15:19","218CR0000277","DETENTION BUSINESS","DETENTION BUSINESS","************","",""
"01/04/2018","15:23","218CR0000278","THEFT","THEFT","225 N ALASKA","",""
"01/04/2018","15:28","218CR0000279","MEDICAL - EMERGENCY","MEDICAL - EMERGENCY","3901 HARRISON AVE","",""
"01/04/2018","15:47","218CR0000280","THEFT","BUY/POSSESS STOLEN PROPERTY","2084 HARRISON AVE MTN MAN PAWN","",""
"01/04/2018","15:54","218CR0000281","VEHICLE INSPECTION","VEHICLE INSPECTION","1926 GRAND AVE","",""
"01/04/2018","15:58","218CR0000282","CIVIL PAPER SERVICE","CIVIL PAPER SERVICE","425 W SILVER","",""
"01/04/2018","16:02","218CR0000283","T/S","T/S","TEXAS AVE AND CIVIC CENTER RD","",""
"01/04/2018","16:14","218CR0000284","MEDICAL - EMERGENCY","MEDICAL - EMERGENCY","4034 ELIZABETH WARREN APT212","",""
"01/04/2018","16:22","218CR0000286","ATL","ATL","DEWEY BLVD AND OREGON","",""
"01/04/2018","16:24","218CR0000285","ASSIST OTHER AGENCY","ASSIST OTHER AGENCY","313 GRANITE MOUNTAIN RD","",""
"01/04/2018","16:25","218CR0000287","CIVIL PAPER SERVICE","CIVIL PAPER SERVICE","401 S WYOMING ST","",""
"01/04/2018","16:27","218CR0000288","CITIZEN AID","CITIZEN AID","2025 GRAND AVE","",""
"01/04/2018","16:37","218CR0000289","THEFT","THEFT","1370 HARRISON AVE","",""
"01/04/2018","16:39","218CR0000290","ALL OTHER","ALL OTHER","425 W MERCURY","",""
"01/04/2018","16:45","218CR0000291","ATL","ATL","","",""
"01/04/2018","16:56","218CR0000292","SUICIDE ATTEMPT/THREAT","SUICIDE ATTEMPT/THREAT","************","",""
"01/04/2018","17:01","218CR0000293","MEDICAL - EMERGENCY","MEDICAL - EMERGENCY","2064 ROBERTS AVE","",""
"01/04/2018","17:26","218CR0000294","ASSIST OTHER AGENCY","ASSIST OTHER AGENCY","I15 MM 154 SBND","",""
"01/04/2018","17:36","218CR0000295","CIVIL PAPER SERVICE","CIVIL PAPER SERVICE","207 W PARK # 127","",""
"01/04/2018","17:39","218CR0000296","T/S","T/S @ ALUMINUM ST AND MONTANA ST","ALUMINUM ST AND MONTANA ST","",""
"01/04/2018","18:03","218CR0000297","CIVIL STANDBY","CIVIL STANDBY","225 N ALASKA ST","",""
"01/04/2018","18:32","218CR0000298","WELFARE CHECK","WELFARE CHECK","1301 HARRISON AVE","",""
"01/04/2018","18:33","218CR0000299","THEFT","THEFT, SHOPLIFT","1600 HARRISON AVE","",""
"01/04/2018","18:46","218CR0000300","CITIZEN AID","CITIZEN AID","117 N HAMILTON","",""
"01/04/2018","19:29","218CR0000301","TRAFFIC","TRAFFIC","2600 GRAND AVE","",""
"01/04/2018","19:52","218CR0000302","ACCIDENT","ACCIDENT","840 W SILVER ST","",""
"01/04/2018","20:04","218CR0000303","T/S","T/S","CLINTON AND MAIN","",""
"01/04/2018","20:06","218CR0000304","T/S","T/S @ PARK ST AND WASHINGTON ST","PARK ST AND WASHINGTON ST","",""
"01/04/2018","20:08","218CR0000305","WANTED PERSON","REVOCATION OF SENTENCE","541 S MAIN SPUD MCGEES","ARREST(s) MADE",""
"01/04/2018","20:17","218CR0000306","CIVIL PAPER SERVICE","CIVIL PAPER SERVICE","425 W SILVER","",""
"01/04/2018","20:28","218CR0000307","T/S","T/S @ 3600 BLK HARRISON AVE","3600 BLK HARRISON AVE","",""
"01/04/2018","20:32","218CR0000308","SUSPICIOUS ACTIVITY","SUSPICIOUS ACTIVITY","1200 BLK S MONTANA","",""
"01/04/2018","20:44","218CR0000309","MEDICAL - EMERGENCY","MEDICAL - EMERGENCY","108 ROCKY MTN LN","",""
"01/04/2018","22:11","218CR0000310","MEDICAL - EMERGENCY","MEDICAL - EMERGENCY","744 EMPIRE","",""
"01/04/2018","22:17","218CR0000311","FIRE - STRUCTURE","FIRE - STRUCTURE","2221 WALL","",""
"01/04/2018","22:43","218CR0000312","ANIMAL COMPLAINT","ANIMAL COMPLAINT","533 S IDAHO","",""
"01/04/2018","23:08","218CR0000313","TRAFFIC","CRIMINAL ENDANGERMENT","3523 S WARREN","ARREST(s) MADE",""
"01/04/2018","23:47","218CR0000315","UNKNOWN PROBLEM","UNKNOWN PROBLEM","76 MISSOULA AVE","",""
"01/05/2018","00:18","218CR0000316","SUSPICIOUS ACTIVITY","SUSPICIOUS ACTIVITY","CHULA AND PARROTT","",""
"01/05/2018","00:31","218CR0000317","SUSPICIOUS ACTIVITY","SUSPICIOUS ACTIVITY","2039 GAYLORD","",""
"01/05/2018","00:56","218CR0000318","SUSPICIOUS ACTIVITY","SUSPICIOUS ACTIVITY","MAIN ST AND PLATINUM ST","",""
"01/05/2018","01:19","218CR0000319","SUSPICIOUS ACTIVITY","SUSPICIOUS ACTIVITY","901 E FRONT THRIFTWAY","",""
"01/05/2018","02:03","218CR0000320","WANTED PERSON","WANTED PERSON","************","",""
"01/05/2018","02:34","218CR0000321","ATL","ATL","PARK AND MAIN","",""
"01/05/2018","02:50","218CR0000322","UNWANTED PERSON","UNWANTED PERSON","************","",""
"01/05/2018","02:58","218CR0000323","DISTURBANCE","DISTURBANCE","906 SILVERBOW HOMES","",""
"01/05/2018","03:06","218CR0000324","ALL OTHER","ALL OTHER","633 S MONTANA ST","",""
"01/05/2018","03:41","218CR0000325","MEDICAL - EMERGENCY","MEDICAL - EMERGENCY","246 E MERCURY","",""
"01/05/2018","04:22","218CR0000326","UNWANTED PERSON","UNWANTED PERSON","************","",""
"01/05/2018","04:47","218CR0000327","BUSINESS CHECK","BUSINESS CHECK","1370 HARRISON TOWN PUMP","",""
"01/05/2018","04:47","218CR0000328","ALL OTHER","ALL OTHER","225 N ALASKA ST","",""
"01/05/2018","06:46","218CR0000329","MEDICAL - EMERGENCY","MEDICAL - EMERGENCY","2315 SILVER BOW BLVD","",""
"01/05/2018","07:56","218CR0000330","TRAFFIC HAZARD","TRAFFIC HAZARD","118 W PLATINUM","",""
"01/05/2018","08:05","218CR0000331","SUSPICIOUS ACTIVITY","SUSPICIOUS ACTIVITY","1 HOLIDAY PARK","",""
"01/05/2018","08:08","218CR0000332","ALARM - BURGLARY","ALARM - BURGLARY","************","",""
"01/05/2018","08:17","218CR0000333","WELFARE CHECK","WELFARE CHECK","1445 WATERLINE RD","",""
 
Sunday the 20th. Affiliate Marketing.
Copyright 2012

©